TimeMDT,TemperatureF,Dew PointF,Humidity,Sea Level PressureIn,VisibilityMPH,Wind Direction,Wind SpeedMPH,Gust SpeedMPH,PrecipitationIn,Events,Conditions,WindDirDegrees,DateUTC
12:15 AM,42.8,19.4,39,30.20,10.0,Calm,Calm,-,N/A,,Clear,0,2012-10-04 06:15:00
12:35 AM,44.6,19.4,37,30.20,10.0,WNW,5.8,-,N/A,,Clear,300,2012-10-04 06:35:00
1:15 AM,35.6,21.2,56,30.21,10.0,ENE,4.6,-,N/A,,Clear,70,2012-10-04 07:15:00
1:35 AM,33.8,19.4,56,30.21,10.0,Calm,Calm,-,N/A,,Clear,0,2012-10-04 07:35:00
1:55 AM,33.8,19.4,56,30.21,10.0,NNE,3.5,-,N/A,,Clear,30,2012-10-04 07:55:00
2:15 AM,33.8,21.2,60,30.21,10.0,Calm,Calm,-,N/A,,Clear,0,2012-10-04 08:15:00
2:35 AM,32.0,19.4,60,30.21,10.0,SSE,6.9,-,N/A,,Clear,150,2012-10-04 08:35:00
2:55 AM,33.8,19.4,56,30.22,10.0,SSE,5.8,-,N/A,,Clear,160,2012-10-04 08:55:00
3:15 AM,35.6,21.2,56,30.21,10.0,SSW,8.1,-,N/A,,Clear,200,2012-10-04 09:15:00
3:35 AM,35.6,19.4,52,30.21,10.0,ESE,4.6,-,N/A,,Clear,110,2012-10-04 09:35:00
3:55 AM,35.6,19.4,52,30.21,10.0,ESE,6.9,-,N/A,,Clear,110,2012-10-04 09:55:00
4:15 AM,33.8,17.6,52,30.22,10.0,SE,5.8,-,N/A,,Clear,140,2012-10-04 10:15:00
4:35 AM,33.8,17.6,52,30.21,10.0,SSE,6.9,-,N/A,,Clear,150,2012-10-04 10:35:00
4:55 AM,33.8,17.6,52,30.22,10.0,SE,5.8,-,N/A,,Clear,140,2012-10-04 10:55:00
5:35 AM,35.6,17.6,48,30.22,10.0,ESE,4.6,-,N/A,,Clear,120,2012-10-04 11:35:00
6:15 AM,32.0,17.6,55,30.21,10.0,ESE,4.6,-,N/A,,Clear,110,2012-10-04 12:15:00
6:55 AM,33.8,15.8,48,30.21,10.0,Calm,Calm,-,N/A,,Clear,0,2012-10-04 12:55:00
7:15 AM,33.8,15.8,48,30.21,10.0,SW,4.6,-,N/A,,Clear,220,2012-10-04 13:15:00
7:55 AM,33.8,15.8,48,30.22,10.0,Calm,Calm,-,N/A,,Clear,0,2012-10-04 13:55:00
8:15 AM,33.8,15.8,48,30.22,10.0,ESE,4.6,-,N/A,,Clear,120,2012-10-04 14:15:00
8:35 AM,33.8,15.8,48,30.22,10.0,SE,4.6,-,N/A,,Clear,140,2012-10-04 14:35:00
8:55 AM,35.6,17.6,48,30.22,10.0,ESE,6.9,-,N/A,,Clear,120,2012-10-04 14:55:00
9:15 AM,39.2,19.4,45,30.22,10.0,SE,3.5,-,N/A,,Clear,130,2012-10-04 15:15:00
9:35 AM,42.8,19.4,39,30.23,10.0,SSE,6.9,-,N/A,,Clear,160,2012-10-04 15:35:00
9:55 AM,44.6,19.4,37,30.23,10.0,SSE,4.6,-,N/A,,Clear,150,2012-10-04 15:55:00
10:15 AM,44.6,19.4,37,30.23,10.0,South,4.6,-,N/A,,Clear,190,2012-10-04 16:15:00
10:35 AM,46.4,19.4,34,30.24,10.0,SSW,4.6,-,N/A,,Clear,210,2012-10-04 16:35:00
10:55 AM,46.4,21.2,37,30.24,10.0,Calm,Calm,-,N/A,,Clear,0,2012-10-04 16:55:00
11:15 AM,48.2,21.2,34,30.24,10.0,SSE,4.6,-,N/A,,Clear,160,2012-10-04 17:15:00
11:35 AM,51.8,21.2,30,30.23,10.0,South,6.9,-,N/A,,Clear,170,2012-10-04 17:35:00
11:55 AM,53.6,23.0,30,30.23,10.0,South,6.9,-,N/A,,Clear,190,2012-10-04 17:55:00
12:35 PM,53.6,23.0,30,30.22,10.0,South,4.6,-,N/A,,Clear,170,2012-10-04 18:35:00
12:55 PM,55.4,23.0,29,30.22,10.0,Calm,Calm,-,N/A,,Clear,0,2012-10-04 18:55:00
1:15 PM,55.4,23.0,29,30.21,10.0,SSE,4.6,-,N/A,,Clear,150,2012-10-04 19:15:00
1:35 PM,55.4,23.0,29,30.21,10.0,SSW,5.8,-,N/A,,Clear,210,2012-10-04 19:35:00
1:55 PM,57.2,24.8,29,30.20,10.0,West,4.6,-,N/A,,Clear,280,2012-10-04 19:55:00
2:15 PM,57.2,24.8,29,30.19,10.0,Calm,Calm,-,N/A,,Clear,0,2012-10-04 20:15:00
2:35 PM,57.2,24.8,29,30.18,10.0,South,4.6,-,N/A,,Clear,190,2012-10-04 20:35:00
2:55 PM,57.2,24.8,29,30.17,10.0,SSE,3.5,-,N/A,,Clear,160,2012-10-04 20:55:00
3:15 PM,57.2,24.8,29,30.16,10.0,West,3.5,-,N/A,,Clear,280,2012-10-04 21:15:00
3:35 PM,59.0,23.0,25,30.15,10.0,Calm,Calm,-,N/A,,Clear,0,2012-10-04 21:35:00
3:55 PM,60.8,24.8,25,30.14,10.0,NNW,4.6,-,N/A,,Clear,340,2012-10-04 21:55:00
4:15 PM,60.8,24.8,25,30.14,10.0,WNW,5.8,-,N/A,,Clear,300,2012-10-04 22:15:00
4:55 PM,62.6,23.0,22,30.13,10.0,NNW,6.9,-,N/A,,Clear,340,2012-10-04 22:55:00
5:15 PM,62.6,21.2,20,30.13,10.0,NNW,4.6,-,N/A,,Clear,330,2012-10-04 23:15:00
5:35 PM,62.6,21.2,20,30.13,10.0,NW,5.8,-,N/A,,Clear,310,2012-10-04 23:35:00
5:55 PM,60.8,21.2,22,30.13,10.0,WNW,8.1,-,N/A,,Clear,300,2012-10-04 23:55:00
6:15 PM,60.8,19.4,20,30.13,10.0,NNW,10.4,-,N/A,,Clear,340,2012-10-05 00:15:00
6:35 PM,60.8,19.4,20,30.13,10.0,North,11.5,-,N/A,,Clear,350,2012-10-05 00:35:00
6:55 PM,59.0,19.4,22,30.13,10.0,NNW,6.9,-,N/A,,Clear,330,2012-10-05 00:55:00
7:15 PM,57.2,19.4,23,30.13,10.0,NNW,8.1,-,N/A,,Clear,330,2012-10-05 01:15:00
7:35 PM,53.6,19.4,26,30.13,6.0,NW,6.9,-,N/A,,Clear,310,2012-10-05 01:35:00
7:55 PM,53.6,19.4,26,30.13,10.0,West,5.8,-,N/A,,Clear,260,2012-10-05 01:55:00
8:15 PM,53.6,21.2,28,30.14,10.0,West,3.5,-,N/A,,Clear,280,2012-10-05 02:15:00
8:35 PM,51.8,21.2,30,30.14,10.0,West,5.8,-,N/A,,Clear,270,2012-10-05 02:35:00
8:55 PM,51.8,21.2,30,30.14,10.0,West,5.8,-,N/A,,Clear,260,2012-10-05 02:55:00
9:15 PM,48.2,21.2,34,30.14,10.0,WNW,3.5,-,N/A,,Clear,290,2012-10-05 03:15:00
9:35 PM,48.2,21.2,34,30.15,10.0,West,5.8,-,N/A,,Clear,280,2012-10-05 03:35:00
10:15 PM,44.6,21.2,39,30.15,10.0,North,4.6,-,N/A,,Clear,10,2012-10-05 04:15:00
10:35 PM,44.6,21.2,39,30.16,10.0,NNW,5.8,-,N/A,,Clear,330,2012-10-05 04:35:00
10:55 PM,46.4,21.2,37,30.16,10.0,West,6.9,-,N/A,,Clear,280,2012-10-05 04:55:00
11:15 PM,44.6,21.2,39,30.17,10.0,West,8.1,-,N/A,,Clear,280,2012-10-05 05:15:00
11:35 PM,42.8,21.2,42,30.17,10.0,WNW,10.4,-,N/A,,Clear,300,2012-10-05 05:35:00
11:55 PM,42.8,21.2,42,30.17,10.0,WNW,10.4,-,N/A,,Clear,300,2012-10-05 05:55:00